TimePST,TemperatureF,Dew PointF,Humidity,Sea Level PressureIn,VisibilityMPH,Wind Direction,Wind SpeedMPH,Gust SpeedMPH,PrecipitationIn,Events,Conditions,WindDirDegrees,DateUTC
12:56 AM,60.1,44.1,55,29.71,10.0,WSW,9.2,-,N/A,,Clear,250,2013-11-16 08:56:00
1:56 AM,59.0,44.1,58,29.73,10.0,West,11.5,-,N/A,,Clear,280,2013-11-16 09:56:00
2:56 AM,61.0,44.1,54,29.74,10.0,West,9.2,-,N/A,,Clear,260,2013-11-16 10:56:00
3:56 AM,59.0,44.1,58,29.75,10.0,West,11.5,-,N/A,,Clear,270,2013-11-16 11:56:00
4:56 AM,59.0,44.1,58,29.77,10.0,WSW,8.1,-,N/A,,Clear,250,2013-11-16 12:56:00
5:56 AM,57.9,42.1,56,29.78,10.0,South,4.6,-,N/A,,Partly Cloudy,190,2013-11-16 13:56:00
6:56 AM,57.9,39.9,51,29.79,10.0,Calm,Calm,-,N/A,,Partly Cloudy,0,2013-11-16 14:56:00
7:56 AM,63.0,42.1,46,29.82,10.0,West,4.6,-,N/A,,Partly Cloudy,260,2013-11-16 15:56:00
8:56 AM,69.1,42.1,38,29.84,10.0,WSW,19.6,26.5,N/A,,Partly Cloudy,250,2013-11-16 16:56:00
9:56 AM,71.1,42.1,35,29.85,10.0,WSW,21.9,31.1,N/A,,Partly Cloudy,240,2013-11-16 17:56:00
10:56 AM,72.0,39.9,31,29.84,10.0,WSW,19.6,-,N/A,,Partly Cloudy,240,2013-11-16 18:56:00
11:56 AM,73.0,39.0,29,29.81,10.0,West,17.3,24.2,N/A,,Partly Cloudy,260,2013-11-16 19:56:00
12:56 PM,73.0,39.9,30,29.79,10.0,WSW,25.3,29.9,N/A,,Partly Cloudy,250,2013-11-16 20:56:00
1:56 PM,73.0,41.0,31,29.78,10.0,West,25.3,29.9,N/A,,Partly Cloudy,260,2013-11-16 21:56:00
2:56 PM,72.0,41.0,33,29.78,10.0,WSW,19.6,27.6,N/A,,Partly Cloudy,240,2013-11-16 22:56:00
3:56 PM,69.1,41.0,36,29.80,10.0,WSW,20.7,-,N/A,,Partly Cloudy,250,2013-11-16 23:56:00
4:56 PM,66.0,39.9,38,29.81,10.0,WSW,18.4,-,N/A,,Clear,250,2013-11-17 00:56:00
5:56 PM,64.0,39.9,41,29.83,10.0,WSW,16.1,-,N/A,,Clear,250,2013-11-17 01:56:00
6:56 PM,62.1,41.0,46,29.84,10.0,West,11.5,-,N/A,,Clear,260,2013-11-17 02:56:00
7:56 PM,60.1,39.9,47,29.86,10.0,West,10.4,-,N/A,,Clear,260,2013-11-17 03:56:00
8:56 PM,59.0,39.9,49,29.89,10.0,West,10.4,-,N/A,,Clear,260,2013-11-17 04:56:00
9:56 PM,60.1,41.0,49,29.91,10.0,WSW,12.7,-,N/A,,Clear,250,2013-11-17 05:56:00
10:56 PM,60.1,41.0,49,29.91,10.0,WSW,12.7,-,N/A,,Clear,250,2013-11-17 06:56:00
11:56 PM,59.0,41.0,51,29.93,10.0,WSW,11.5,-,N/A,,Clear,250,2013-11-17 07:56:00